[[{"header":{"parameterUnit":"m.s-1","parameterCategory":1,"la1":30.2991,"la2":30.254,"lo1":-89.0895,"lo2":-89.0444,"dy":0.0017,"dx":0.0017,"nx":28,"ny":28,"refTime":"2024-08-03T09:00:00:Z","depth":0,"parameterNumber":2,"parameterNumberName":"U-component_of_WINDS"},"data":[0,0,0,0,0,0,0,0,0,0,0,0,0,0,0,0,0,0,0,0,0,0,0,0,0,0,0,0,0,0,0,0,0,0,0,0,0,0,0,0,0,0,0,0,0,0,0,0,0,0,0,0,0,0,0,0,0,0,-1.6723,-1.6724,0,-1.6838,-1.684,-1.6841,-1.6894,-1.6894,-1.6894,-1.6894,-1.7006,-1.7009,-1.7012,0,0,0,0,0,0,0,0,0,0,0,0,0,-1.6544,-1.6547,-1.6723,-1.6724,-1.6726,-1.6838,-1.684,-1.6841,-1.6894,-1.6894,-1.6894,-1.6894,-1.7005,-1.7009,-1.7013,0,0,0,0,0,0,0,0,0,0,0,0,0,-1.6637,-1.6548,-1.6722,-1.6765,-1.677,-1.6838,-1.684,-1.6842,-1.6894,-1.6894,-1.6894,-1.6893,-1.7004,-1.7009,-1.7013,-1.7045,0,0,-1.7027,-1.7029,0,0,0,0,0,0,0,0,-1.6631,-1.6643,-1.6758,-1.6763,-1.6768,-1.6852,-1.6818,-1.691,-1.6894,-1.6847,-1.6894,-1.6893,-1.6955,-1.6963,-1.6985,-1.705,-1.7055,-1.7028,-1.7031,-1.7033,-1.7034,0,0,0,0,0,0,0,-1.6625,-1.6638,-1.6768,-1.6759,-1.6766,-1.6778,-1.6791,-1.6836,-1.69,-1.6851,-1.6855,-1.6868,-1.6957,-1.6981,-1.6988,-1.7056,-1.7028,-1.7032,-1.7035,-1.7036,-1.7155,-1.7156,0,0,0,0,0,0,-1.6612,-1.6633,-1.6765,-1.6772,-1.6698,-1.6781,-1.6796,-1.6825,-1.69,-1.6911,-1.6868,-1.687,-1.6973,-1.6983,-1.6992,-1.7035,-1.7032,-1.7037,-1.704,-1.7155,-1.7155,-1.7156,0,0,0,0,0,0,-1.6608,-1.6623,-1.676,-1.6704,-1.6722,-1.6785,-1.6817,-1.6827,-1.6851,-1.6913,-1.6924,-1.688,-1.6973,-1.6986,-1.7032,-1.704,-1.7039,-1.7043,-1.7154,-1.7155,-1.7155,-1.7121,0,0,0,0,0,0,-1.6602,-1.6621,-1.6634,-1.6703,-1.6725,-1.6799,-1.6817,-1.683,-1.6859,-1.6863,-1.6927,-1.6938,-1.6974,-1.7025,-1.7037,-1.7046,-1.7047,-1.7154,-1.7155,-1.7155,-1.7121,-1.712,-1.7119,0,0,0,0,0,-1.6596,-1.6618,-1.6635,-1.665,-1.6743,-1.6799,-1.6811,-1.6854,-1.6859,-1.6873,-1.6914,-1.6936,-1.7038,-1.7029,-1.7043,-1.7054,-1.7154,-1.7154,-1.7155,-1.7122,-1.712,-1.7119,0,0,0,0,0,0,-1.6546,-1.6628,-1.6647,-1.6693,-1.6739,-1.6808,-1.6826,-1.685,-1.6894,-1.6895,-1.6945,-1.6959,-1.7002,-1.7033,-1.7022,-1.709,-1.7098,-1.7101,-1.7068,-1.7067,-1.7065,-1.7056,-1.7051,0,0,0,0,0,-1.6541,-1.6581,-1.665,-1.6684,-1.6706,-1.6762,-1.6788,-1.6818,-1.6866,-1.6885,-1.6929,-1.6974,-1.7017,-1.7044,-1.7086,-1.7127,-1.7142,-1.7141,-1.714,-1.7139,-1.7141,-1.7166,-1.7167,-1.7158,-1.7158,-1.7158,0,0,-1.6529,-1.6579,-1.6601,-1.6675,-1.6714,-1.6754,-1.6778,-1.6818,-1.6848,-1.6891,-1.6938,-1.6972,-1.7026,-1.707,-1.7092,-1.7097,-1.7147,-1.714,-1.7138,-1.7141,-1.7167,-1.7168,-1.7168,-1.7159,-1.7159,-1.7159,0,0,-1.6529,-1.6571,-1.6604,-1.6644,-1.6704,-1.6742,-1.675,-1.6816,-1.6841,-1.689,-1.6924,-1.6959,-1.7031,-1.7069,-1.7097,-1.7115,-1.7137,-1.7127,-1.712,-1.7144,-1.7144,-1.7145,-1.7152,-1.7154,-1.7129,-1.7129,-1.7129,0,-1.6506,-1.6569,-1.6618,-1.6658,-1.669,-1.6734,-1.6768,-1.6803,-1.6873,-1.6893,-1.6899,-1.6992,-1.7031,-1.7086,-1.7091,-1.7112,-1.7123,-1.7119,-1.7141,-1.7142,-1.7144,-1.715,-1.7153,-1.7128,-1.7128,-1.7128,-1.7128,0,-1.6539,-1.6582,-1.6602,-1.6672,-1.6706,-1.6742,-1.6796,-1.6824,-1.6852,-1.6889,-1.6938,-1.6988,-1.7042,-1.7057,-1.7083,-1.7116,-1.7118,-1.7131,-1.714,-1.7142,-1.7149,-1.7152,-1.7125,-1.7126,-1.7126,-1.7127,0,0,-1.6508,-1.6607,-1.6613,-1.6646,-1.6717,-1.675,-1.679,-1.6845,-1.6869,-1.6916,-1.695,-1.7012,-1.7026,-1.7058,-1.7089,-1.711,-1.7122,-1.7122,-1.7124,-1.7121,-1.7163,-1.7151,-1.7153,-1.7138,-1.7139,-1.714,-1.7158,0,-1.6517,-1.6591,-1.6637,-1.6692,-1.6732,-1.6776,-1.6811,-1.6857,-1.6894,-1.6933,-1.6972,-1.7016,-1.7031,-1.7051,-1.7074,-1.7116,-1.7131,-1.7115,-1.7169,-1.7171,-1.7154,-1.7157,-1.7145,-1.716,-1.7161,-1.7162,-1.7162,0,-1.6537,-1.6586,-1.6646,-1.6715,-1.6734,-1.6763,-1.6819,-1.6857,-1.6911,-1.6936,-1.6974,-1.7006,-1.7049,-1.7056,-1.7115,-1.7103,-1.7128,-1.7153,-1.7154,-1.716,-1.7166,-1.7163,-1.7165,-1.7167,-1.7167,-1.7167,-1.7166,0,-1.6508,-1.6589,-1.6636,-1.6663,-1.6744,-1.6765,-1.6799,-1.6854,-1.6885,-1.6934,-1.6954,-1.7006,-1.7034,-1.7073,-1.7119,-1.7119,-1.7174,-1.7184,-1.7195,-1.7194,-1.7203,-1.7202,-1.721,-1.7221,-1.722,-1.722,-1.722,0,-1.6513,-1.6548,-1.6625,-1.6653,-1.6694,-1.6747,-1.6785,-1.6823,-1.6872,-1.6908,-1.6949,-1.6982,-1.704,-1.708,-1.7116,-1.716,-1.7172,-1.7193,-1.7202,-1.7189,-1.7187,-1.7205,-1.7205,-1.7221,-1.7221,-1.7221,-1.7221,0,-1.6487,-1.654,-1.6594,-1.6668,-1.6688,-1.6714,-1.6777,-1.6806,-1.6846,-1.6892,-1.6906,-1.6967,-1.7017,-1.7067,-1.7132,-1.7157,-1.72,-1.7213,-1.7182,-1.7187,-1.7196,-1.7194,-1.7215,-1.7221,-1.7228,-1.7228,-1.7228,0,-1.6486,-1.6514,-1.6593,-1.6621,-1.6656,-1.67,-1.6734,-1.6788,-1.682,-1.6886,-1.6908,-1.6961,-1.7006,-1.7083,-1.7133,-1.7184,-1.7198,-1.7202,-1.7205,-1.7192,-1.7198,-1.7195,-1.7199,-1.7199,-1.7199,-1.7199,-1.7199,0,-1.6479,-1.6505,-1.6552,-1.6609,-1.6648,-1.6695,-1.6743,-1.6763,-1.6827,-1.6861,-1.6914,-1.695,-1.7019,-1.7071,-1.7129,-1.7164,-1.7192,-1.7198,-1.7203,-1.719,-1.7171,-1.7181,-1.7177,-1.7196,-1.7197,-1.7197,-1.7197,-1.7197,-1.6465,-1.6493,-1.6554,-1.6605,-1.6648,-1.6693,-1.6725,-1.677,-1.6816,-1.6878,-1.6907,-1.696,-1.7016,-1.7097,-1.7132,-1.7173,-1.7181,-1.7188,-1.719,-1.7191,-1.7188,-1.7166,-1.7184,-1.7184,-1.7184,-1.7184,-1.7184,0,-1.646,-1.6503,-1.655,-1.6618,-1.6658,-1.6684,-1.674,-1.6772,-1.6819,-1.6869,-1.6915,-1.6976,-1.7028,-1.7083,-1.7138,-1.7161,-1.7175,-1.7173,-1.7172,-1.7179,-1.7178,-1.7168,-1.7161,-1.7161,-1.7161,-1.7161,-1.7161,-1.7161,-1.6463,-1.6512,-1.6545,-1.6616,-1.6658,-1.6712,-1.6741,-1.6783,-1.6824,-1.6892,-1.6936,-1.6973,-1.7026,-1.7086,-1.7135,-1.715,-1.7168,-1.7162,-1.718,-1.7178,-1.7179,-1.7181,-1.7172,-1.7166,-1.7166,-1.7179,-1.7179,-1.7179]},{"header":{"parameterUnit":"m.s-1","parameterCategory":1,"la1":30.2991,"la2":30.254,"lo1":-89.0895,"lo2":-89.0444,"dy":0.0017,"dx":0.0017,"nx":28,"ny":28,"refTime":"2024-08-03T09:00:00:Z","depth":0,"parameterNumber":3,"parameterNumberName":"V-component_of_WINDS"},"data":[0,0,0,0,0,0,0,0,0,0,0,0,0,0,0,0,0,0,0,0,0,0,0,0,0,0,0,0,0,0,0,0,0,0,0,0,0,0,0,0,0,0,0,0,0,0,0,0,0,0,0,0,0,0,0,0,0,0,-0.2645,-0.2644,0,-0.2528,-0.2527,-0.2525,-0.2469,-0.2469,-0.2469,-0.2469,-0.2345,-0.2342,-0.2339,0,0,0,0,0,0,0,0,0,0,0,0,0,-0.2817,-0.2814,-0.2645,-0.2643,-0.2642,-0.2528,-0.2527,-0.2525,-0.2469,-0.2469,-0.2469,-0.247,-0.2346,-0.2343,-0.2338,0,0,0,0,0,0,0,0,0,0,0,0,0,-0.2725,-0.2813,-0.2645,-0.2601,-0.2595,-0.2528,-0.2526,-0.2524,-0.2469,-0.2469,-0.2469,-0.247,-0.2348,-0.2343,-0.2338,-0.2305,0,0,-0.2323,-0.232,0,0,0,0,0,0,0,0,-0.273,-0.2719,-0.2609,-0.2604,-0.2598,-0.2513,-0.2541,-0.2451,-0.2469,-0.2517,-0.2469,-0.247,-0.2401,-0.2392,-0.2369,-0.2299,-0.2294,-0.2322,-0.2319,-0.2317,-0.2315,0,0,0,0,0,0,0,-0.2737,-0.2723,-0.2598,-0.2607,-0.26,-0.2585,-0.2572,-0.2524,-0.246,-0.2513,-0.2509,-0.2496,-0.2398,-0.2374,-0.2366,-0.2292,-0.2322,-0.2318,-0.2315,-0.2313,-0.2189,-0.2189,0,0,0,0,0,0,-0.2751,-0.2729,-0.2602,-0.2595,-0.2666,-0.2582,-0.2568,-0.254,-0.246,-0.2448,-0.2496,-0.2494,-0.2383,-0.2372,-0.2361,-0.2318,-0.2317,-0.2312,-0.2309,-0.219,-0.2189,-0.2189,0,0,0,0,0,0,-0.2755,-0.274,-0.2607,-0.2661,-0.2643,-0.2579,-0.2549,-0.2538,-0.2514,-0.2447,-0.2435,-0.2484,-0.2382,-0.2368,-0.232,-0.2313,-0.231,-0.2305,-0.219,-0.219,-0.2189,-0.223,0,0,0,0,0,0,-0.276,-0.2742,-0.2729,-0.2661,-0.264,-0.2569,-0.2548,-0.2536,-0.2506,-0.2502,-0.2433,-0.2421,-0.2381,-0.2328,-0.2315,-0.2306,-0.2301,-0.219,-0.219,-0.2189,-0.2229,-0.2231,-0.2233,0,0,0,0,0,-0.2766,-0.2745,-0.2729,-0.2714,-0.2624,-0.2568,-0.2556,-0.2512,-0.2506,-0.2492,-0.245,-0.2423,-0.2316,-0.2323,-0.2308,-0.2297,-0.2191,-0.219,-0.2189,-0.2228,-0.2231,-0.2233,0,0,0,0,0,0,-0.2812,-0.2735,-0.2717,-0.2672,-0.2628,-0.2559,-0.2541,-0.2516,-0.2471,-0.2469,-0.2415,-0.2399,-0.2356,-0.2321,-0.2331,-0.2262,-0.2251,-0.2247,-0.2285,-0.2287,-0.2289,-0.2298,-0.2297,0,0,0,0,0,-0.2817,-0.278,-0.2714,-0.2681,-0.266,-0.2605,-0.2579,-0.2549,-0.2499,-0.248,-0.2433,-0.2385,-0.234,-0.2312,-0.2267,-0.2224,-0.2208,-0.221,-0.2212,-0.2214,-0.2211,-0.2186,-0.2186,-0.2187,-0.2187,-0.2187,0,0,-0.2827,-0.278,-0.276,-0.2689,-0.2651,-0.2613,-0.2589,-0.2549,-0.252,-0.2473,-0.2425,-0.2389,-0.2332,-0.2287,-0.2264,-0.2257,-0.2207,-0.2213,-0.2215,-0.2211,-0.2185,-0.2185,-0.2185,-0.2187,-0.2187,-0.2187,0,0,-0.2825,-0.2786,-0.2755,-0.2718,-0.2661,-0.2624,-0.2617,-0.2552,-0.2527,-0.2479,-0.2443,-0.2407,-0.2331,-0.2292,-0.2262,-0.2247,-0.2221,-0.2234,-0.2244,-0.222,-0.222,-0.222,-0.2214,-0.2213,-0.2232,-0.2232,-0.2232,0,-0.2844,-0.2786,-0.2742,-0.2705,-0.2675,-0.2633,-0.26,-0.2566,-0.2496,-0.2476,-0.2469,-0.2374,-0.2332,-0.2277,-0.2274,-0.2251,-0.2241,-0.2241,-0.2224,-0.2223,-0.2222,-0.2216,-0.2214,-0.2234,-0.2233,-0.2233,-0.2233,0,-0.2812,-0.2773,-0.2754,-0.2691,-0.2658,-0.2624,-0.2573,-0.2546,-0.2519,-0.2483,-0.2434,-0.2383,-0.2327,-0.2312,-0.2285,-0.2253,-0.225,-0.2235,-0.2222,-0.2225,-0.2218,-0.2216,-0.2236,-0.2236,-0.2235,-0.2235,0,0,-0.2835,-0.2748,-0.2742,-0.2713,-0.2648,-0.2616,-0.2579,-0.2526,-0.2504,-0.2458,-0.2425,-0.2363,-0.2348,-0.2314,-0.2282,-0.2262,-0.2253,-0.2248,-0.2246,-0.2251,-0.2215,-0.2227,-0.2226,-0.2236,-0.2236,-0.2235,-0.222,0,-0.2824,-0.2758,-0.2717,-0.2667,-0.263,-0.259,-0.2558,-0.2514,-0.248,-0.2442,-0.2404,-0.236,-0.2344,-0.2324,-0.2302,-0.2259,-0.2245,-0.226,-0.2204,-0.2203,-0.222,-0.2222,-0.2235,-0.2223,-0.2217,-0.2217,-0.2216,0,-0.2802,-0.2759,-0.2706,-0.2646,-0.2628,-0.2601,-0.2549,-0.2514,-0.2464,-0.244,-0.2403,-0.2372,-0.233,-0.2323,-0.2265,-0.2275,-0.225,-0.2226,-0.2225,-0.2217,-0.221,-0.2215,-0.2218,-0.2216,-0.2212,-0.2212,-0.2213,0,-0.2824,-0.2752,-0.2711,-0.2688,-0.2616,-0.2598,-0.2567,-0.2516,-0.2488,-0.2442,-0.2423,-0.2373,-0.2346,-0.2307,-0.2263,-0.2261,-0.2209,-0.2198,-0.2188,-0.2189,-0.2178,-0.2179,-0.2177,-0.2163,-0.2163,-0.2163,-0.2163,0,-0.2816,-0.2784,-0.272,-0.2695,-0.2659,-0.2613,-0.2578,-0.2543,-0.2499,-0.2466,-0.2428,-0.2397,-0.234,-0.2302,-0.2267,-0.2224,-0.2212,-0.2191,-0.2182,-0.2194,-0.2197,-0.2177,-0.2176,-0.2162,-0.2162,-0.2163,-0.2163,0,-0.2833,-0.2789,-0.2742,-0.2679,-0.2663,-0.2639,-0.2584,-0.2558,-0.2522,-0.2481,-0.2468,-0.2411,-0.2365,-0.2317,-0.2253,-0.2229,-0.2188,-0.2176,-0.2206,-0.2201,-0.2193,-0.2195,-0.2178,-0.2173,-0.2163,-0.2163,-0.2163,0,-0.2831,-0.2806,-0.2742,-0.2717,-0.2688,-0.2649,-0.262,-0.2574,-0.2545,-0.2486,-0.2466,-0.2418,-0.2376,-0.2303,-0.2255,-0.2207,-0.2192,-0.219,-0.2185,-0.2198,-0.2192,-0.2194,-0.2191,-0.2192,-0.2192,-0.2192,-0.2192,0,-0.2831,-0.2811,-0.2771,-0.2724,-0.2692,-0.2652,-0.2611,-0.2593,-0.2538,-0.2507,-0.246,-0.2428,-0.2364,-0.2316,-0.2262,-0.2228,-0.2201,-0.2195,-0.219,-0.2202,-0.222,-0.221,-0.2211,-0.2195,-0.2195,-0.2195,-0.2194,-0.2194,-0.2838,-0.2815,-0.2766,-0.2723,-0.2688,-0.2651,-0.2623,-0.2585,-0.2545,-0.2491,-0.2466,-0.2418,-0.2368,-0.2293,-0.2261,-0.2222,-0.2214,-0.2207,-0.2205,-0.2204,-0.2207,-0.2227,-0.2212,-0.2212,-0.2212,-0.2212,-0.2212,0,-0.2836,-0.2803,-0.2765,-0.2709,-0.2676,-0.2655,-0.2609,-0.2582,-0.2541,-0.2498,-0.2458,-0.2404,-0.2357,-0.2307,-0.2257,-0.2236,-0.2222,-0.2224,-0.2225,-0.2218,-0.2217,-0.2226,-0.2236,-0.2236,-0.2236,-0.2236,-0.2236,-0.2236,-0.2831,-0.2791,-0.2765,-0.2707,-0.2673,-0.2628,-0.2604,-0.2569,-0.2534,-0.2476,-0.2438,-0.2406,-0.2359,-0.2306,-0.2262,-0.2248,-0.2231,-0.2237,-0.2219,-0.222,-0.2218,-0.2216,-0.2224,-0.2234,-0.2234,-0.2223,-0.2223,-0.2223]}]]